Date,TemperatureHighF,TemperatureAvgF,TemperatureLowF,DewpointHighF,DewpointAvgF,DewpointLowF,HumidityHigh,HumidityAvg,HumidityLow,PressureMaxIn,PressureMinIn,WindSpeedMaxMPH,WindSpeedAvgMPH,GustSpeedMaxMPH,PrecipitationSumIn
2013-3-1,29,24,18,23,18,14,83,76,65,30.11,29.95,14,4,16,0.00
2013-3-2,29,19,11,17,13,9,91,78,59,30.11,30.03,15,2,15,0.00
2013-3-3,31,22,12,17,14,9,88,73,52,30.06,29.96,16,3,16,0.00
2013-3-4,33,20,6,18,12,4,95,74,44,30.12,30.03,8,1,8,0.00
2013-3-5,31,24,17,23,19,12,93,80,70,30.08,29.81,22,6,22,0.00
2013-3-6,42,32,25,30,27,23,95,82,61,30.16,29.91,16,4,18,0.00
2013-3-7,36,30,22,29,23,17,93,74,53,30.35,30.15,14,3,15,0.00
2013-3-8,42,28,14,25,19,12,94,72,44,30.45,30.32,10,1,10,0.00
2013-3-9,40,34,26,34,26,20,86,73,59,30.33,29.89,19,4,20,0.00
2013-3-10,47,43,36,44,40,32,97,89,70,29.89,29.62,13,3,13,0.37
2013-3-11,49,43,32,47,41,32,99,94,80,29.63,29.38,24,5,24,0.15
2013-3-12,32,29,25,32,26,24,98,89,76,29.82,29.56,22,7,22,0.01
2013-3-13,30,25,20,24,17,12,94,75,53,30.18,29.82,27,7,27,0.00
2013-3-14,37,27,15,24,18,13,92,70,45,30.22,30.01,18,4,18,0.00
2013-3-15,37,33,28,33,30,24,95,89,79,30.01,29.79,20,4,21,0.01
2013-3-16,36,28,22,26,22,17,95,80,57,30.01,29.71,19,5,19,0.05
2013-3-17,28,24,20,19,14,10,82,67,49,30.22,30.01,15,4,16,0.00
2013-3-18,32,25,18,30,22,13,97,88,79,30.09,29.51,19,6,23,0.00
2013-3-19,31,22,18,30,18,13,95,85,64,29.89,29.53,32,11,32,0.00
2013-3-20,22,19,12,16,12,10,91,76,67,29.92,29.85,24,6,24,0.00
2013-3-21,29,22,14,24,18,11,94,85,71,29.93,29.84,20,5,22,0.00
2013-3-22,36,28,24,24,21,18,84,73,57,29.99,29.91,16,4,16,0.01
2013-3-23,39,30,24,25,23,20,86,75,55,30.08,29.98,11,2,11,0.00
2013-3-24,35,28,21,26,23,19,94,80,64,30.00,29.66,21,4,21,0.00
2013-3-25,38,32,28,28,25,22,84,75,61,29.92,29.61,24,7,24,0.00
2013-3-26,40,33,29,32,29,26,94,84,63,30.10,29.92,19,4,19,0.01
2013-3-27,44,35,28,29,26,22,95,72,49,30.18,30.10,21,6,22,0.00
2013-3-28,48,36,26,27,24,20,94,65,37,30.23,30.17,16,3,16,0.00
2013-3-29,50,37,23,31,23,19,88,61,34,30.23,30.15,17,2,18,0.00
2013-3-30,54,40,22,33,25,17,97,61,29,30.16,29.80,16,3,16,0.00
2013-3-31,47,41,32,41,36,28,97,84,59,29.80,29.58,25,6,25,0.04